Time,TemperatureF,DewpointF,PressureIn,WindDirection,WindDirectionDegrees,WindSpeedMPH,WindSpeedGustMPH,Humidity,HourlyPrecipIn,Conditions,Clouds,dailyrainin,SoftwareType,DateUTC
2013-07-07 01:25:00,80.6,64.9,28.46,NW,321,5.0,10.0,59,0.00,01:25,,0.00,WeatherDisplay:WD co,2013-07-06 22:25:00,
2013-07-07 01:36:00,80.8,65.1,28.46,NNW,330,7.0,14.0,59,0.00,01:35,,0.00,WeatherDisplay:WD co,2013-07-06 22:36:00,
2013-07-07 02:35:00,80.2,65.6,28.45,NW,325,5.0,14.0,61,0.00,02:35,,0.00,WeatherDisplay:WD co,2013-07-06 23:35:00,
2013-07-07 03:41:00,79.2,67.3,28.44,NNW,331,6.0,16.0,67,0.00,03:40,,0.00,WeatherDisplay:WD co,2013-07-07 00:41:00,
2013-07-07 09:40:00,81.7,66.4,28.48,NNW,331,10.0,21.0,60,0.00,09:40,,0.00,WeatherDisplay:WD co,2013-07-07 06:40:00,
2013-07-07 11:05:00,83.8,67.0,28.49,NW,308,9.0,18.0,57,0.00,11:05,,0.01,WeatherDisplay:WD co,2013-07-07 08:05:00,
2013-07-07 11:45:00,85.3,67.8,28.49,NW,319,8.0,15.0,56,0.00,11:45,,0.01,WeatherDisplay:WD co,2013-07-07 08:45:00,
2013-07-07 11:50:00,85.6,68.1,28.49,NNW,332,6.0,16.0,56,0.00,11:50,,0.01,WeatherDisplay:WD co,2013-07-07 08:50:00,
2013-07-07 11:55:00,86.0,68.5,28.49,NNW,332,7.0,13.0,56,0.00,11:55,,0.01,WeatherDisplay:WD co,2013-07-07 08:55:00,
2013-07-07 12:25:00,87.1,68.4,28.50,NW,308,8.0,16.0,54,0.00,12:25,,0.01,WeatherDisplay:WD co,2013-07-07 09:25:00,
2013-07-07 13:15:00,87.8,67.4,28.49,NW,319,10.0,21.0,51,0.00,13:15,,0.01,WeatherDisplay:WD co,2013-07-07 10:15:00,
2013-07-07 13:45:00,88.7,68.2,28.49,NNW,330,8.0,15.0,51,0.00,13:45,,0.01,WeatherDisplay:WD co,2013-07-07 10:45:00,
2013-07-07 14:35:00,88.2,67.8,28.49,NW,306,8.0,26.0,51,0.00,14:35,,0.01,WeatherDisplay:WD co,2013-07-07 11:35:00,
2013-07-07 16:40:00,89.2,67.0,28.48,NW,324,10.0,23.0,48,0.00,16:40,,0.01,WeatherDisplay:WD co,2013-07-07 13:40:00,
2013-07-07 17:25:00,89.4,66.5,28.48,NW,320,3.0,16.0,47,0.00,17:25,,0.01,WeatherDisplay:WD co,2013-07-07 14:25:00,
2013-07-07 17:40:00,89.8,66.2,28.47,NNW,335,8.0,17.0,46,0.00,17:40,,0.01,WeatherDisplay:WD co,2013-07-07 14:40:00,
2013-07-07 17:50:00,88.7,65.9,28.47,NNW,327,10.0,20.0,47,0.00,17:50,,0.01,WeatherDisplay:WD co,2013-07-07 14:50:00,
2013-07-07 19:15:00,87.1,65.0,28.48,NNW,327,14.0,22.0,48,0.01,RA,,0.02,WeatherDisplay:WD co,2013-07-07 16:15:00,
2013-07-07 20:00:00,86.7,65.9,28.49,NNW,339,10.0,19.0,50,0.00,RA,,0.02,WeatherDisplay:WD co,2013-07-07 17:00:00,
2013-07-07 20:05:00,86.5,65.7,28.49,NW,316,8.0,20.0,50,0.00,RA,,0.02,WeatherDisplay:WD co,2013-07-07 17:05:00,
2013-07-07 20:20:00,86.2,65.4,28.49,NW,323,7.0,15.0,50,0.00,20:20,,0.02,WeatherDisplay:WD co,2013-07-07 17:20:00,
2013-07-07 21:00:00,84.7,64.6,28.49,NW,315,6.0,11.0,51,0.00,21:00,,0.02,WeatherDisplay:WD co,2013-07-07 18:00:00,
2013-07-07 21:15:00,84.6,64.4,28.50,NW,321,6.0,12.0,51,0.00,21:15,,0.02,WeatherDisplay:WD co,2013-07-07 18:15:00,
2013-07-07 21:50:00,84.0,63.9,28.51,NW,304,8.0,14.0,51,0.00,21:50,,0.02,WeatherDisplay:WD co,2013-07-07 18:50:00,
2013-07-07 22:35:00,83.5,63.4,28.53,NW,310,8.0,17.0,51,0.00,22:35,,0.02,WeatherDisplay:WD co,2013-07-07 19:35:00,
2013-07-07 22:40:00,83.5,63.4,28.53,NW,310,6.0,15.0,51,0.00,22:40,,0.02,WeatherDisplay:WD co,2013-07-07 19:40:00,
2013-07-07 23:45:00,82.9,63.5,28.53,NW,314,5.0,11.0,52,0.00,23:45,,0.02,WeatherDisplay:WD co,2013-07-07 20:45:00,
2013-07-07 23:55:00,82.8,63.3,28.53,NW,312,7.0,13.0,52,0.00,23:55,,0.02,WeatherDisplay:WD co,2013-07-07 20:55:00,